EW4493 Weather Reports


Display with metric or nautical units.
time (UTC)temp
F
wind
direction
speed
MPH
gust
MPH
rain 1hr
in
rain 24hr
in
rain mn
in
humidity
%
barometer
mb
20201126181820 42 134 0.0 0.0 0.01 0.56 0.55 1 1010.4
20201126181322 42 135 0.0 0.0 0.01 0.56 0.55 1 1010.3
20201126180820 42 135 0.0 0.0 0.01 0.56 0.55 1 1010.3
20201126180316 42 135 0.0 0.0 0.01 0.56 0.55 1 1010.3
20201126175815 42 135 0.0 0.0 0.01 0.56 0.55 2 1010.5
20201126175320 42 134 0.0 0.0 0.01 0.56 0.55 2 1010.5
20201126174813 42 135 0.0 0.0 0.02 0.56 0.55 2 1010.6
20201126174313 42 135 0.0 0.0 0.01 0.55 0.54 2 1010.6
20201126173811 42 134 0.0 0.0 0.01 0.55 0.54 2 1010.6
20201126173330 42 135 0.0 0.0 0.01 0.55 0.54 2 1010.8
20201126172829 42 134 0.0 0.0 0.02 0.55 0.54 2 1010.8
20201126172332 42 135 0.0 0.0 0.02 0.55 0.54 2 1010.8
20201126171829 41 135 0.0 0.0 0.02 0.55 0.54 2 1010.8
20201126171328 41 135 0.0 0.0 0.02 0.55 0.54 3 1011.0
20201126170825 41 135 0.0 0.0 0.02 0.55 0.54 3 1011.1
20201126170326 41 135 0.0 0.0 0.02 0.55 0.54 3 1011.2
20201126165823 41 135 0.0 0.0 0.02 0.55 0.54 3 1011.3
20201126165325 41 135 0.0 0.0 0.03 0.55 0.54 3 1011.4
20201126164818 41 135 0.0 0.0 0.02 0.54 0.53 3 1011.4
20201126164336 41 134 0.0 0.0 0.02 0.54 0.53 3 1011.5
20201126163828 41 134 0.0 0.0 0.02 0.54 0.53 3 1011.8
20201126163326 41 134 0.0 0.0 0.02 0.54 0.53 3 1011.9
20201126162826 41 135 0.0 0.0 0.01 0.53 0.52 4 1011.9
20201126162323 41 134 0.0 0.0 0.01 0.53 0.52 4 1012.1
20201126161821 40 135 0.0 0.0 0.01 0.53 0.52 4 1012.4
20201126161324 40 135 0.0 0.0 0.01 0.53 0.52 4 1012.5
20201126160814 40 135 0.0 0.0 0.01 0.53 0.52 4 1012.6
20201126160315 40 134 0.0 0.0 0.01 0.53 0.52 5 1012.6
20201126155814 40 134 0.0 0.0 0.01 0.53 0.52 5 1012.7
20201126155316 40 135 0.0 0.0 0.00 0.52 0.51 5 1012.8
20201126154813 40 134 0.0 0.0 0.00 0.52 0.51 5 1012.9
20201126154313 40 135 0.0 0.0 0.00 0.52 0.51 5 1013.0
20201126153829 39 135 0.0 0.0 0.00 0.52 0.51 5 1013.1
20201126153335 39 134 0.0 0.0 0.00 0.52 0.51 6 1013.2
20201126152829 39 134 0.0 0.0 0.01 0.52 0.51 6 1013.3
20201126152330 39 134 0.0 0.0 0.01 0.52 0.51 6 1013.3
20201126151829 39 134 0.0 0.0 0.01 0.52 0.51 7 1013.3
20201126151329 38 135 0.0 0.0 0.01 0.52 0.51 7 1013.6
20201126150827 38 135 0.0 0.0 0.01 0.52 0.51 7 1013.7
20201126150324 38 135 0.0 0.0 0.01 0.52 0.51 8 1013.8
20201126145825 38 135 0.0 0.0 0.01 0.52 0.51 8 1013.8
20201126145324 37 135 0.0 0.0 0.01 0.52 0.51 8 1013.9
20201126144823 37 134 0.0 0.0 0.01 0.52 0.51 8 1013.9
20201126144323 37 135 0.0 0.0 0.02 0.52 0.51 8 1013.9
20201126143822 37 134 0.0 0.0 0.02 0.52 0.51 9 1014.0
20201126143322 37 135 0.0 0.0 0.02 0.52 0.51 9 1014.1
20201126142817 37 135 0.0 0.0 0.02 0.51 0.50 9 1014.0
20201126142315 37 135 0.0 0.0 0.02 0.51 0.50 9 1014.0
20201126141814 37 135 0.0 0.0 0.02 0.51 0.50 9 1014.1
20201126141317 37 134 0.0 0.0 0.02 0.51 0.50 9 1014.2
20201126140812 37 134 0.0 0.0 0.02 0.51 0.50 9 1014.2
20201126140314 37 135 0.0 0.0 0.02 0.51 0.50 10 1014.3
20201126135832 36 135 0.0 0.0 0.02 0.51 0.50 10 1014.3
20201126135327 36 135 0.0 0.0 0.02 0.51 0.50 10 1014.4
20201126134824 36 134 0.0 0.0 0.02 0.50 0.49 10 1014.3
20201126134326 36 135 0.0 0.0 0.02 0.50 0.49 10 1014.5
20201126133822 36 134 0.0 0.0 0.02 0.50 0.49 10 1014.8
20201126133324 36 135 0.0 0.0 0.02 0.50 0.49 10 1014.9
20201126132822 36 135 0.0 0.0 0.01 0.49 0.48 10 1014.9
20201126132323 36 134 0.0 0.0 0.02 0.49 0.48 10 1015.0
20201126131817 36 135 0.0 0.0 0.02 0.49 0.48 11 1015.0
20201126131320 36 135 0.0 0.0 0.02 0.49 0.48 11 1015.0
20201126130817 36 134 0.0 0.0 0.02 0.49 0.48 11 1014.9
20201126130317 36 135 0.0 0.0 0.03 0.49 0.48 11 1014.9
20201126125814 36 134 0.0 0.0 0.03 0.49 0.48 11 1015.1
20201126125329 36 135 0.0 0.0 0.03 0.49 0.48 11 1015.0
20201126124831 36 135 0.0 0.0 0.03 0.48 0.47 11 1015.2
20201126124335 36 134 0.0 0.0 0.03 0.48 0.47 11 1015.1
20201126123829 36 135 0.0 0.0 0.04 0.48 0.47 11 1015.2
20201126123329 36 135 0.0 0.0 0.04 0.48 0.47 11 1015.2
20201126122828 36 134 0.0 0.0 0.05 0.48 0.47 11 1015.4
20201126122327 36 135 0.0 0.0 0.04 0.47 0.46 11 1015.4
20201126121827 36 135 0.0 0.0 0.05 0.47 0.46 11 1015.3
20201126121328 36 134 0.0 0.0 0.06 0.47 0.46 12 1015.3
20201126120826 36 134 0.0 0.0 0.06 0.47 0.46 12 1015.2
20201126120328 36 135 0.0 0.0 0.06 0.46 0.45 12 1015.3
20201126115821 36 135 0.0 0.0 0.06 0.46 0.45 12 1015.4
20201126115322 36 134 0.0 0.0 0.07 0.46 0.45 12 1015.1
20201126114820 36 135 0.0 0.0 0.07 0.45 0.44 12 1015.2
20201126114320 36 135 0.0 0.0 0.07 0.45 0.44 12 1015.2
20201126113826 36 135 0.0 0.0 0.07 0.44 0.43 12 1015.4
20201126113328 36 134 0.0 0.0 0.07 0.44 0.43 12 1015.3
20201126112831 36 135 0.0 0.0 0.07 0.43 0.42 12 1015.4
20201126112324 36 134 0.0 0.0 0.07 0.42 0.41 12 1015.5
20201126111822 35 135 0.0 0.0 0.07 0.42 0.41 12 1015.5
20201126111324 35 135 0.0 0.0 0.07 0.41 0.40 12 1015.5
20201126110821 35 134 0.0 0.0 0.08 0.41 0.40 12 1015.5
20201126110322 35 135 0.0 0.0 0.07 0.40 0.39 13 1015.6
20201126105826 35 135 0.0 0.0 0.08 0.40 0.39 13 1015.6
20201126105317 35 134 0.0 0.0 0.08 0.39 0.38 13 1015.6
20201126104823 35 135 0.0 0.0 0.07 0.38 0.37 13 1015.6
20201126104316 35 134 0.0 0.0 0.08 0.38 0.37 13 1015.6
20201126103816 35 135 0.0 0.0 0.08 0.37 0.36 13 1015.7
20201126103312 35 134 0.0 0.0 0.07 0.36 0.35 13 1015.7
20201126102829 35 135 0.0 0.0 0.08 0.36 0.35 13 1015.7
20201126102329 35 135 0.0 0.0 0.08 0.35 0.34 13 1015.6
20201126101828 35 134 0.0 0.0 0.07 0.34 0.33 13 1015.7
20201126101329 35 135 0.0 0.0 0.08 0.34 0.33 13 1015.7
20201126100827 35 135 0.0 0.0 0.08 0.33 0.32 13 1015.8
20201126100328 35 134 0.0 0.0 0.09 0.33 0.32 13 1015.9
20201126095826 35 135 0.0 0.0 0.08 0.32 0.31 13 1015.9
20201126095329 35 135 0.0 0.0 0.08 0.31 0.30 13 1016.0
20201126094824 35 134 0.0 0.0 0.09 0.31 0.30 13 1015.9
20201126094330 35 134 0.0 0.0 0.08 0.30 0.29 13 1015.9
20201126093823 35 135 0.0 0.0 0.08 0.29 0.28 13 1015.9
20201126093323 35 135 0.0 0.0 0.09 0.29 0.28 13 1016.0
20201126092828 35 135 0.0 0.0 0.08 0.28 0.27 13 1016.1
20201126092322 35 134 0.0 0.0 0.08 0.27 0.26 13 1016.1
20201126091817 35 135 0.0 0.0 0.08 0.26 0.25 13 1016.1
20201126091322 35 135 0.0 0.0 0.08 0.26 0.25 13 1016.1
20201126090815 35 134 0.0 0.0 0.08 0.25 0.24 14 1016.2
20201126090314 35 135 0.0 0.0 0.07 0.24 0.23 14 1016.3
20201126085818 35 135 0.0 0.0 0.07 0.24 0.23 14 1016.2
20201126085332 35 135 0.0 0.0 0.07 0.23 0.22 14 1016.3
20201126084831 35 135 0.0 0.0 0.06 0.22 0.21 14 1016.4
20201126084330 35 134 0.0 0.0 0.06 0.21 0.20 14 1016.4
20201126083831 35 134 0.0 0.0 0.06 0.21 0.20 14 1016.5
20201126083326 35 135 0.0 0.0 0.05 0.20 0.19 14 1016.4
20201126082827 35 134 0.0 0.0 0.04 0.19 0.18 15 1016.6
20201126082330 35 135 0.0 0.0 0.05 0.19 0.18 15 1016.6
20201126081825 35 135 0.0 0.0 0.04 0.18 0.17 15 1016.6
20201126081325 35 135 0.0 0.0 0.04 0.18 0.17 15 1016.7
20201126080824 35 135 0.0 0.0 0.03 0.17 0.16 15 1016.7
20201126080323 35 134 0.0 0.0 0.03 0.17 0.16 15 1016.8
20201126075816 35 135 0.0 0.0 0.03 0.17 0.16 15 1016.9
20201126075315 35 134 0.0 0.0 0.02 0.16 0.15 15 1016.9
20201126074815 35 135 0.0 0.0 0.02 0.16 0.15 15 1016.9
20201126074316 35 135 0.0 0.0 0.01 0.15 0.14 15 1017.0
20201126073834 35 135 0.0 0.0 0.01 0.15 0.14 15 1017.0
20201126073331 35 135 0.0 0.0 0.01 0.15 0.14 15 1017.1
20201126072827 35 134 0.0 0.0 0.00 0.14 0.13 16 1017.2
20201126072328 35 135 0.0 0.0 0.00 0.14 0.13 16 1017.2
20201126071826 35 134 0.0 0.0 0.00 0.14 0.13 16 1017.2
20201126071326 35 135 0.0 0.0 0.00 0.14 0.13 16 1017.2
20201126070825 35 135 0.0 0.0 0.00 0.14 0.13 16 1017.3
20201126070324 35 134 0.0 0.0 0.00 0.14 0.13 16 1017.4
20201126065829 35 135 0.0 0.0 0.00 0.14 0.13 16 1017.4
20201126065319 35 134 0.0 0.0 0.00 0.14 0.13 16 1017.4
20201126064818 35 134 0.0 0.0 0.00 0.14 0.13 16 1017.4
20201126064315 35 135 0.0 0.0 0.00 0.14 0.13 17 1017.3
20201126063834 35 135 0.0 0.0 0.00 0.14 0.13 17 1017.4
20201126063331 35 134 0.0 0.0 0.00 0.14 0.13 17 1017.3
20201126062834 35 135 0.0 0.0 0.01 0.14 0.13 17 1017.3
20201126062322 35 134 0.0 0.0 0.01 0.14 0.13 17 1017.3
20201126061822 35 134 0.0 0.0 0.02 0.14 0.13 17 1017.3
20201126061649 35 135 0.0 0.0 0.02 0.14 0.13 17 1017.3
20201126060824 35 134 0.0 0.0 0.03 0.14 0.13 18 1017.4
20201126060319 35 135 0.0 0.0 0.03 0.14 0.13 18 1017.5
20201126055814 35 135 0.0 0.0 0.04 0.14 0.13 18 1017.6
20201126055319 34 135 0.0 0.0 0.04 0.14 0.13 19 1017.5
20201126054826 34 134 0.0 0.0 0.05 0.14 0.13 19 1017.6
20201126054643 34 134 0.0 0.0 0.05 0.14 0.13 19 1017.7
20201126053821 34 135 0.0 0.0 0.06 0.14 0.13 19 1017.7
20201126053328 34 135 0.0 0.0 0.06 0.14 0.13 19 1017.8
20201126052818 34 135 0.0 0.0 0.06 0.13 0.12 20 1017.9
20201126052319 34 134 0.0 0.0 0.06 0.13 0.12 20 1018.0
20201126051823 34 135 0.0 0.0 0.05 0.12 0.11 20 1018.0
20201126051646 34 134 0.0 0.0 0.06 0.12 0.11 20 1018.1
20201126050821 34 135 0.0 0.0 0.05 0.11 0.10 20 1018.2
20201126050342 34 134 0.0 0.0 0.06 0.11 0.10 21 1018.2
20201126045824 34 135 0.0 0.0 0.05 0.10 0.09 21 1018.3
20201126045321 34 134 0.0 0.0 0.05 0.10 0.09 21 1018.4
20201126044821 34 135 0.0 0.0 0.05 0.09 0.08 22 1018.4
20201126044636 34 135 0.0 0.0 0.05 0.09 0.08 22 1018.4
20201126043813 34 135 0.0 0.0 0.04 0.08 0.07 22 1018.4
20201126043333 34 135 0.0 0.0 0.05 0.08 0.07 23 1018.5
20201126042830 34 136 0.0 0.0 0.04 0.07 0.06 23 1018.5
20201126042326 34 135 0.0 0.0 0.04 0.07 0.06 24 1018.5
20201126041839 34 135 0.0 0.0 0.04 0.07 0.06 24 1018.5
20201126041653 34 134 0.0 0.0 0.04 0.06 0.05 24 1018.5
20201126040825 34 135 0.0 0.0 0.04 0.06 0.05 25 1018.5
20201126040320 34 134 0.0 0.0 0.03 0.05 0.04 25 1018.5
20201126035827 34 134 0.0 0.0 0.03 0.05 0.04 26 1018.5
20201126035320 34 135 0.0 0.0 0.04 0.05 0.04 26 1018.5
20201126034824 34 135 0.0 0.0 0.03 0.04 0.03 27 1018.6
20201126034639 34 134 0.0 0.0 0.03 0.04 0.03 27 1018.5
20201126033833 34 135 0.0 0.0 0.03 0.04 0.03 28 1018.5
20201126033332 34 135 0.0 0.0 0.02 0.03 0.02 29 1018.6
20201126032826 34 135 0.0 0.0 0.02 0.03 0.02 29 1018.6
20201126032322 33 134 0.0 0.0 0.02 0.03 0.02 30 1018.7
20201126031830 33 134 0.0 0.0 0.01 0.02 0.01 30 1018.8
20201126031641 33 135 0.0 0.0 0.02 0.02 0.01 30 1018.8
20201126030815 33 135 0.0 0.0 0.02 0.02 0.01 32 1018.7
20201126030331 33 134 0.0 0.0 0.02 0.02 0.01 32 1018.7
20201126025832 33 134 0.0 0.0 0.01 0.01 0.00 33 1018.8
20201126025324 33 135 0.0 0.0 0.01 0.01 0.00 34 1018.8
20201126024839 33 135 0.0 0.0 0.01 0.01 0.00 34 1018.8
20201126024656 33 135 0.0 0.0 0.01 0.01 0.00 34 1018.8
20201126023822 33 135 0.0 0.0 0.01 0.01 0.01 35 1018.8
20201126023332 33 135 0.0 0.0 0.01 0.01 0.01 36 1018.8
20201126022830 33 135 0.0 0.0 0.01 0.01 0.01 37 1018.8
20201126022327 33 134 0.0 0.0 0.01 0.01 0.01 37 1018.7
20201126021827 33 134 0.0 0.0 0.00 0.00 0.00 38 1018.7
20201126021644 33 135 0.0 0.0 0.00 0.00 0.00 38 1018.6
20201126020817 33 135 0.0 0.0 0.00 0.00 0.00 41 1018.7
20201126020332 33 135 0.0 0.0 0.00 0.00 0.00 41 1018.7
20201126015830 33 135 0.0 0.0 0.00 0.00 0.00 43 1018.7
20201126015327 33 134 0.0 0.0 0.00 0.00 0.00 45 1018.8
20201126014841 33 134 0.0 0.0 0.00 0.00 0.00 45 1018.8
20201126014654 33 134 0.0 0.0 0.00 0.00 0.00 46 1018.8
20201126013821 33 135 0.0 0.0 0.00 0.00 0.00 49 1018.8
20201126013320 33 134 0.0 0.0 0.00 0.00 0.00 51 1018.8
20201126012817 33 135 0.0 0.0 0.00 0.00 0.00 53 1018.8
20201126012312 33 135 0.0 0.0 0.00 0.00 0.00 55 1018.8
20201126011835 33 135 0.0 0.0 0.00 0.00 0.00 56 1018.9
20201126011652 33 135 0.0 0.0 0.00 0.00 0.00 58 1018.9
20201126010823 33 134 0.0 0.0 0.00 0.00 0.00 62 1018.8
20201126010336 33 135 0.0 0.0 0.00 0.00 0.00 63 1018.9
20201126005820 33 135 0.0 0.0 0.00 0.00 0.00 64 1018.9
20201126005330 33 135 0.0 0.0 0.00 0.00 0.00 66 1019.0
20201126004830 33 135 0.0 0.0 0.00 0.00 0.00 67 1019.0
20201126004647 33 135 0.0 0.0 0.00 0.00 0.00 68 1019.0
20201126003825 33 135 0.0 0.0 0.00 0.00 0.00 69 1018.9
20201126003325 33 135 0.0 0.0 0.00 0.00 0.00 69 1018.9
20201126002818 33 135 0.0 0.0 0.00 0.00 0.00 69 1019.0
20201126002317 33 134 0.0 0.0 0.00 0.00 0.00 69 1019.0
20201126001827 33 135 0.0 0.0 0.00 0.00 0.00 69 1019.1
20201126001650 33 134 0.0 0.0 0.00 0.00 0.00 69 1019.1
20201126000831 33 134 0.0 0.0 0.00 0.00 0.00 69 1019.2
20201126000328 33 134 0.0 0.0 0.00 0.00 0.00 70 1019.3
20201125235826 33 135 0.0 0.0 0.00 0.00 0.00 70 1019.3
20201125235322 33 135 0.0 0.0 0.00 0.00 0.00 70 1019.2
20201125234821 33 135 0.0 0.0 0.00 0.00 0.00 70 1019.2
20201125234638 33 135 0.0 0.0 0.00 0.00 0.00 70 1019.2
20201125233833 33 135 0.0 0.0 0.00 0.00 0.00 70 1019.3
20201125233325 33 134 0.0 0.0 0.00 0.00 0.00 70 1019.4
20201125232821 33 135 0.0 0.0 0.00 0.00 0.00 70 1019.3
20201125232320 33 134 0.0 0.0 0.00 0.00 0.00 70 1019.3
20201125231817 33 135 0.0 0.0 0.00 0.00 0.00 70 1019.3
20201125231636 33 135 0.0 0.0 0.00 0.00 0.00 70 1019.3
20201125230831 33 135 0.0 0.0 0.00 0.00 0.00 70 1019.2
20201125230331 33 134 0.0 0.0 0.00 0.00 0.00 70 1019.2
20201125225824 33 134 0.0 0.0 0.00 0.00 0.00 71 1019.4
20201125225320 33 135 0.0 0.0 0.00 0.00 0.00 71 1019.4
20201125224834 33 135 0.0 0.0 0.00 0.00 0.00 71 1019.4
20201125224648 33 135 0.0 0.0 0.00 0.00 0.00 71 1019.3
20201125223815 33 134 0.0 0.0 0.00 0.00 0.00 71 1019.4
20201125223333 33 135 0.0 0.0 0.00 0.00 0.00 71 1019.4
20201125222831 33 135 0.0 0.0 0.00 0.00 0.00 71 1019.3
20201125222333 33 134 0.0 0.0 0.00 0.00 0.00 71 1019.4
20201125221833 33 135 0.0 0.0 0.00 0.00 0.00 71 1019.4
20201125221652 33 134 0.0 0.0 0.00 0.00 0.00 71 1019.3
20201125220822 33 134 0.0 0.0 0.00 0.00 0.00 71 1019.7
20201125220316 33 135 0.0 0.0 0.00 0.00 0.00 71 1019.7
20201125215816 33 135 0.0 0.0 0.00 0.00 0.00 71 1019.8
20201125215338 33 135 0.0 0.0 0.00 0.00 0.00 71 1019.8
20201125214829 33 134 0.0 0.0 0.00 0.00 0.00 71 1019.8
20201125214647 33 134 0.0 0.0 0.00 0.00 0.00 71 1019.8
20201125213825 33 135 0.0 0.0 0.00 0.00 0.00 71 1019.7
20201125213322 33 135 0.0 0.0 0.00 0.00 0.00 71 1019.8
20201125212819 33 135 0.0 0.0 0.00 0.00 0.00 71 1019.8
20201125212314 33 134 0.0 0.0 0.00 0.00 0.00 71 1019.7
20201125211835 33 134 0.0 0.0 0.00 0.00 0.00 71 1019.8
20201125211651 33 135 0.0 0.0 0.00 0.00 0.00 71 1019.8
20201125210828 33 134 0.0 0.0 0.00 0.00 0.00 70 1019.8
20201125210323 34 135 0.0 0.0 0.00 0.00 0.00 70 1019.8
20201125205818 34 134 0.0 0.0 0.00 0.00 0.00 70 1020.0
20201125205318 34 135 0.0 0.0 0.00 0.00 0.00 70 1020.0
20201125204833 34 134 0.0 1.0 0.00 0.00 0.00 70 1019.9
20201125204652 34 134 0.0 1.0 0.00 0.00 0.00 70 1019.9
20201125203829 34 136 1.0 5.0 0.00 0.00 0.00 69 1020.0
20201125203323 34 117 1.0 2.0 0.00 0.00 0.00 69 1020.0
20201125202821 34 117 0.0 1.0 0.00 0.00 0.00 69 1020.1
20201125202319 34 117 0.0 2.0 0.00 0.00 0.00 69 1020.2
20201125201822 34 117 0.0 3.0 0.00 0.00 0.00 69 1020.1
20201125201640 34 117 0.0 3.0 0.00 0.00 0.00 69 1020.1
20201125200823 34 117 0.0 2.0 0.00 0.00 0.00 68 1020.0
20201125200319 34 117 0.0 2.0 0.00 0.00 0.00 68 1020.0
20201125195827 34 117 0.0 2.0 0.00 0.00 0.00 68 1019.9
20201125195323 35 118 0.0 2.0 0.00 0.00 0.00 68 1019.8
20201125194836 35 118 1.0 2.0 0.00 0.00 0.00 68 1019.7
20201125194659 35 118 0.0 2.0 0.00 0.00 0.00 68 1019.7
20201125193823 34 118 0.0 0.0 0.00 0.00 0.00 68 1019.6
20201125193316 34 118 0.0 0.0 0.00 0.00 0.00 68 1019.7
20201125192814 34 118 0.0 0.0 0.00 0.00 0.00 68 1019.7
20201125192322 34 118 0.0 0.0 0.00 0.00 0.00 68 1019.6
20201125191818 34 118 0.0 0.0 0.00 0.00 0.00 68 1019.6
20201125191650 34 118 0.0 0.0 0.00 0.00 0.00 68 1019.6
20201125190826 34 118 0.0 0.0 0.00 0.00 0.00 68 1019.9
20201125190313 34 118 0.0 0.0 0.00 0.00 0.00 68 1020.1
20201125185812 34 118 0.0 0.0 0.00 0.00 0.00 68 1020.2
20201125185327 34 118 0.0 0.0 0.00 0.00 0.00 68 1020.2
20201125184822 34 118 0.0 4.0 0.00 0.00 0.00 68 1020.3
20201125184639 33 118 0.0 4.0 0.00 0.00 0.00 68 1020.4
20201125183820 33 140 1.0 5.0 0.00 0.00 0.00 68 1020.4
20201125183320 33 140 0.0 5.0 0.00 0.00 0.00 68 1020.5
20201125182823 33 128 0.0 0.0 0.00 0.00 0.00 68 1020.4
20201125182310 33 128 0.0 4.0 0.00 0.00 0.00 69 1020.6